This is the latest recevied weather packets stored in our database for station/object KB9YVI-11. If no packets are shown the sender has not sent any weather packets the latest 10 day(s).
| Time | Temp. | Humidity | Pressure | Rain* | Wind** | Luminosity | Snow |
|---|---|---|---|---|---|---|---|
| 1788198123 | 32.22° C | 82% | 0 hPa | 0 mm | - | - | - |
| 1788197823 | 32.78° C | 81% | 0 hPa | 0 mm | - | - | - |
| 1788197523 | 32.78° C | 83% | 0 hPa | 0 mm | - | - | - |
| 1788196940 | 32.78° C | 88% | 0 hPa | 0 mm | - | - | - |
| 1788196323 | 31.67° C | 87% | 0 hPa | 0 mm | - | - | - |
| 1788196023 | 31.67° C | 74% | 0 hPa | 0 mm | - | - | - |
| 1788195723 | 31.67° C | 75% | 0 hPa | 0 mm | - | - | - |
| 1788195423 | 31.67° C | 72% | 0 hPa | 0 mm | - | - | - |
| 1788195123 | 31.67° C | 87% | 0 hPa | 0 mm | - | - | - |
| 1788194223 | 31.67° C | 85% | 0 hPa | 0 mm | - | - | - |
| 1788193623 | 31.67° C | 88% | 0 hPa | 0 mm | - | - | - |
| 1788193322 | 31.67° C | 88% | 0 hPa | 0 mm | - | - | - |
| 1788192723 | 31.11° C | 91% | 0 hPa | 0 mm | - | - | - |
| 1788192123 | 31.11° C | 91% | 0 hPa | 0 mm | - | - | - |
| 1788191823 | 30.56° C | 93% | 0 hPa | 0 mm | - | - | - |
| 1788190923 | 30° C | 95% | 0 hPa | 0 mm | - | - | - |
| 1788190323 | 29.44° C | 95% | 0 hPa | 0 mm | - | - | - |
| 1788189722 | 28.89° C | 96% | 0 hPa | 0 mm | - | - | - |
| 1788189423 | 28.89° C | 96% | 0 hPa | 0 mm | - | - | - |
| 1788189123 | 28.89° C | 96% | 0 hPa | 0 mm | - | - | - |
| 1788188823 | 28.89° C | 97% | 0 hPa | 0 mm | - | - | - |
| 1788187923 | 28.89° C | 97% | 0 hPa | 0 mm | - | - | - |
| 1788187023 | 28.33° C | 97% | 0 hPa | 0 mm | - | - | - |
| 1788186423 | 28.33° C | 98% | 0 hPa | 0 mm | - | - | - |
| 1788186122 | 28.33° C | 99% | 0 hPa | 0 mm | - | - | - |
* Rain latest hour (hover to see other rain measurements)
** Current wind speed in m/s (hover to see current wind gust speed)